This is the latest recevied weather packets stored in our database for station/object GW4003. If no packets are shown the sender has not sent any weather packets the latest 10 day(s).
| Time | Temp. | Humidity | Pressure | Rain* | Wind** | Luminosity | Snow |
|---|---|---|---|---|---|---|---|
| 1777175509 | 5.56° C | 64% | 1013.8 hPa | 0 mm | - | - | - |
| 1777175206 | 5.56° C | 64% | 1013.9 hPa | 0 mm | - | - | - |
| 1777174903 | 6.11° C | 63% | 1013.8 hPa | 0 mm | - | - | - |
| 1777174600 | 6.11° C | 62% | 1013.8 hPa | 0 mm | - | - | - |
| 1777174297 | 6.11° C | 62% | 1013.6 hPa | 0 mm | - | - | - |
| 1777173994 | 6.67° C | 61% | 1013.6 hPa | 0 mm | - | - | - |
| 1777173691 | 6.67° C | 61% | 1013.7 hPa | 0 mm | - | - | - |
| 1777173389 | 6.67° C | 60% | 1013.7 hPa | 0 mm | - | - | - |
| 1777173086 | 6.67° C | 60% | 1013.7 hPa | 0 mm | - | - | - |
| 1777172782 | 7.22° C | 59% | 1013.6 hPa | 0 mm | - | - | - |
| 1777172479 | 7.22° C | 58% | 1013.5 hPa | 0 mm | - | - | - |
| 1777172175 | 7.78° C | 58% | 1013.5 hPa | 0 mm | - | - | - |
| 1777171872 | 7.78° C | 57% | 1013.4 hPa | 0 mm | - | - | - |
| 1777171569 | 7.78° C | 57% | 1013.2 hPa | 0 mm | - | - | - |
| 1777171265 | 8.33° C | 56% | 1013.2 hPa | 0 mm | - | - | - |
| 1777170961 | 8.33° C | 55% | 1012.9 hPa | 0 mm | - | - | - |
| 1777170658 | 8.33° C | 54% | 1012.8 hPa | 0 mm | - | - | - |
| 1777170354 | 8.89° C | 53% | 1012.6 hPa | 0 mm | - | - | - |
| 1777170051 | 8.89° C | 52% | 1012.6 hPa | 0 mm | - | - | - |
| 1777169748 | 9.44° C | 52% | 1012.5 hPa | 0 mm | - | - | - |
| 1777169444 | 9.44° C | 51% | 1012.6 hPa | 0 mm | - | - | - |
| 1777169141 | 9.44° C | 51% | 1012.4 hPa | 0 mm | - | - | - |
| 1777168837 | 10° C | 49% | 1012.2 hPa | 0 mm | - | - | - |
| 1777168534 | 10° C | 48% | 1012.1 hPa | 0 mm | - | - | - |
| 1777168230 | 10.56° C | 47% | 1012.1 hPa | 0 mm | - | - | - |
* Rain latest hour (hover to see other rain measurements)
** Current wind speed in m/s (hover to see current wind gust speed)